Tracking 19176 objects as of 25-May-2018
HD Live streaming from Space Station
objects crossing your sky now

COSMOS 1130

Track COSMOS 1130 now!
10-day predictions
COSMOS 1130 is classified as:


NORAD ID: 11538
Int'l Code: 1979-084A
Perigee: 1,404.0 km
Apogee: 1,487.4 km
Inclination: 74.0 °
Period: 114.6 minutes
Semi major axis: 7816 km
RCS: 0.7035 m2 (medium)
Launch date: September 25, 1979
Source: Commonwealth of Independent States (former USSR) (CIS)
Launch site: PLESETSK MISSILE AND SPACE COMPLEX (PKMTR)
aabbcc
Your satellite tracking list
Your tracking list is empty




NASA's NSSDC Master Catalog

Two Line Element Set (TLE):
1 11538U 79084A   18144.89894905 -.00000033 +00000-0 -10240-3 0  9994
2 11538 074.0269 060.7541 0053369 244.5953 180.5183 12.56221203772959
Source of the keplerian elements: AFSPC